Appleton, WI

11:57 PM CST on November 17, 2019 (GMT -0600)
Outagamie County Regional

Weather History for KATW - October, 2019

Change the Weather History Date:

Wednesday, October 23, 2019

  Actual Average Record
Temperature  
Mean Temperature 44 °F -  
Max Temperature 50 °F 55 °F 81 °F (1963)
Min Temperature 39 °F 40 °F 21 °F (1969)
Degree Days  
Heating Degree Days 20    
Moisture  
Dew Point 31 °F    
Average Humidity 64    
Maximum Humidity 76    
Minimum Humidity 43    
Precipitation  
Precipitation 0.00 in - - ()
Sea Level Pressure  
Sea Level Pressure 29.77 in    
Wind  
Wind Speed 12 mph ()    
Max Wind Speed 18 mph    
Max Gust Speed 25 mph    
Visibility 10.0 miles    
Events      
Averages and records for this station are not official NWS values.
T = Trace of Precipitation, MM = Missing Value Source: Averaged Metar Reports

Daily Weather History Graph

Daily Weather History Graph

Search for Another Location

Airport or City:

Astronomy

Oct. 23, 2019 Rise Set
Actual Time 7:18 AM CDT 5:57 PM CDT
Civil Twilight 6:49 AM CDT 6:26 PM CDT
Nautical Twilight 6:15 AM CDT 7:00 PM CDT
Astronomical Twilight 5:41 AM CDT 7:34 PM CDT
Moon 1:20 AM CDT (10/23) 4:02 PM CDT (10/23)
Length of Visible Light 11h 37m
Length of Day
10h 38m
Waning Crescent, 26% of the Moon is Illuminated
Oct 23
Waning Crescent
Oct 27
New
Nov 4
First Quarter
Nov 12
Full
Nov 19
Last Quarter

Hourly Weather History & Observations

Time (CDT) Temp. Windchill Dew Point Humidity Pressure Visibility Wind Dir Wind Speed Gust Speed Precip Events Conditions
12:15 AM 41.0 °F 32.2 °F 32.0 °F 70% 29.61 in 10.0 mi West 18.4 mph 24.2 mph N/A   Overcast
12:35 AM 41.0 °F 32.5 °F 32.0 °F 70% 29.62 in 10.0 mi West 17.3 mph 20.7 mph N/A   Overcast
12:55 AM 41.0 °F 32.5 °F 32.0 °F 70% 29.62 in 10.0 mi West 17.3 mph 25.3 mph N/A   Overcast
1:15 AM 41.0 °F 33.9 °F 32.0 °F 70% 29.62 in 10.0 mi WSW 12.7 mph 16.1 mph N/A   Overcast
1:35 AM 41.0 °F 33.9 °F 32.0 °F 70% 29.62 in 10.0 mi WSW 12.7 mph 19.6 mph N/A   Overcast
1:55 AM 41.0 °F 33.9 °F 32.0 °F 70% 29.63 in 10.0 mi WSW 12.7 mph 20.7 mph N/A   Overcast
2:15 AM 41.0 °F 34.3 °F 32.0 °F 70% 29.63 in 10.0 mi WSW 11.5 mph 19.6 mph N/A   Overcast
2:35 AM 42.8 °F 34.8 °F 32.0 °F 66% 29.64 in 10.0 mi West 17.3 mph 25.3 mph N/A   Overcast
2:55 AM 41.0 °F 33.1 °F 32.0 °F 70% 29.64 in 10.0 mi WSW 15.0 mph 21.9 mph N/A   Overcast
3:15 AM 42.8 °F 36.6 °F 32.0 °F 66% 29.64 in 10.0 mi WSW 11.5 mph - N/A   Overcast
3:35 AM 42.8 °F 35.4 °F 32.0 °F 66% 29.64 in 10.0 mi West 15.0 mph 21.9 mph N/A   Overcast
3:55 AM 41.0 °F 33.1 °F 32.0 °F 70% 29.65 in 10.0 mi West 15.0 mph 19.6 mph N/A   Drizzle
4:15 AM 41.0 °F 32.8 °F 32.0 °F 70% 29.66 in 10.0 mi West 16.1 mph 19.6 mph N/A   Overcast
4:35 AM 41.0 °F 33.5 °F 32.0 °F 70% 29.67 in 10.0 mi West 13.8 mph - N/A   Overcast
4:55 AM 41.0 °F 34.7 °F 32.0 °F 70% 29.68 in 10.0 mi West 10.4 mph - N/A   Overcast
5:15 AM 41.0 °F 36.4 °F 32.0 °F 70% 29.68 in 10.0 mi WSW 6.9 mph - N/A   Overcast
5:20 AM 41.0 °F 34.7 °F 33.8 °F 76% 29.68 in 10.0 mi WSW 10.4 mph - N/A   Mostly Cloudy
5:45 AM 41.0 °F 34.7 °F 33.8 °F 76% 29.69 in 10.0 mi WSW 10.4 mph - N/A   Mostly Cloudy
6:45 AM 42.8 °F 35.8 °F 30.2 °F 61% 29.72 in 10.0 mi WSW 13.8 mph - N/A   Mostly Cloudy
7:45 AM 42.8 °F 35.1 °F 30.2 °F 61% 29.73 in 10.0 mi WSW 16.1 mph 23.0 mph N/A   Mostly Cloudy
8:45 AM 41.0 °F 33.1 °F 30.2 °F 65% 29.76 in 10.0 mi SW 15.0 mph - N/A   Mostly Cloudy
9:45 AM 41.0 °F 32.8 °F 30.2 °F 65% 29.80 in 10.0 mi WSW 16.1 mph 23.0 mph N/A   Scattered Clouds
10:45 AM 44.6 °F 37.2 °F 30.2 °F 57% 29.82 in 10.0 mi West 17.3 mph 23.0 mph N/A   Mostly Cloudy
11:45 AM 44.6 °F 37.4 °F 28.4 °F 53% 29.84 in 10.0 mi West 16.1 mph 23.0 mph N/A   Mostly Cloudy
12:45 PM 46.4 °F 39.8 °F 30.2 °F 53% 29.84 in 10.0 mi West 16.1 mph 21.9 mph N/A   Mostly Cloudy
1:45 PM 48.2 °F - 28.4 °F 46% 29.84 in 10.0 mi West 17.3 mph 21.9 mph N/A   Mostly Cloudy
2:45 PM 50.0 °F - 28.4 °F 43% 29.83 in 10.0 mi West 12.7 mph 18.4 mph N/A   Scattered Clouds
3:45 PM 50.0 °F - 28.4 °F 43% 29.85 in 10.0 mi WSW 11.5 mph 18.4 mph N/A   Mostly Cloudy
4:45 PM 48.2 °F - 28.4 °F 46% 29.87 in 10.0 mi West 11.5 mph - N/A   Mostly Cloudy
5:45 PM 46.4 °F 43.5 °F 30.2 °F 53% 29.88 in 10.0 mi WNW 5.8 mph - N/A   Mostly Cloudy
6:45 PM 46.4 °F 44.3 °F 30.2 °F 53% 29.92 in 10.0 mi WNW 4.6 mph - N/A   Overcast
7:45 PM 44.6 °F 43.1 °F 30.2 °F 57% 29.95 in 10.0 mi Variable 3.5 mph - N/A   Overcast
8:45 PM 42.8 °F 40.1 °F 33.8 °F 70% 29.97 in 10.0 mi Variable 4.6 mph - N/A   Overcast
9:45 PM 42.8 °F 40.1 °F 32.0 °F 66% 29.98 in 10.0 mi Variable 4.6 mph - N/A   Overcast
10:45 PM 42.8 °F 38.6 °F 30.2 °F 61% 29.98 in 10.0 mi WNW 6.9 mph - N/A   Overcast
10:55 PM 41.0 °F 36.4 °F 30.2 °F 65% 29.98 in 10.0 mi NW 6.9 mph - N/A   Overcast
11:15 PM 41.0 °F 36.4 °F 32.0 °F 70% 29.99 in 10.0 mi WNW 6.9 mph - N/A   Overcast
11:35 PM 39.2 °F 34.2 °F 32.0 °F 75% 30.00 in 10.0 mi WNW 6.9 mph - N/A   Overcast
11:55 PM 39.2 °F 34.2 °F 32.0 °F 75% 30.00 in 10.0 mi WNW 6.9 mph - N/A   Overcast